• In Hungary
  • List of Countries
  • For 7 days
  • Water Temperature
  • Satellite Maps
  • Weather Map
  • News
  • Weather Widgets
  • user-avatar
    Login

    Hourly Weather Mbandaka

    Today, 20 August, Sunday

    Time Temperature Precipitation Wind Pressure Humidity
    00:00 +23°C° 0 mm 0 mps 731 mmHg 83%
    01:00 +23°C° 0 mm 0 mps 731 mmHg 83%
    02:00 +22°C° 0 mm 0 mps 731 mmHg 84%
    03:00 +22°C° 0 mm 0 mps 731 mmHg 84%
    04:00 +22°C° 0 mm 0 mps 731 mmHg 85%
    05:00 +23°C° 0 mm 0 mps 731 mmHg 84%
    06:00 +23°C° 0 mm 0 mps 732 mmHg 82%
    07:00 +24°C° 0 mm 0 mps 732 mmHg 80%
    08:00 +26°C° 0.6 mm 0 mps 733 mmHg 74%
    09:00 +28°C° 0.6 mm 0 mps 733 mmHg 67%
    10:00 +31°C° 0.6 mm 0 mps 733 mmHg 60%
    11:00 +31°C° 1.4 mm 0 mps 733 mmHg 58%
    12:00 +33°C° 1.4 mm 1 mps 732 mmHg 56%
    13:00 +34°C° 1.4 mm 1 mps 731 mmHg 54%
    14:00 +33°C° 0.3 mm 1 mps 731 mmHg 54%
    15:00 +33°C° 0.3 mm 1 mps 730 mmHg 54%
    16:00 +33°C° 0.3 mm 1 mps 730 mmHg 54%
    17:00 +31°C° 0 mm 1 mps 730 mmHg 62%
    18:00 +29°C° 0 mm 1 mps 730 mmHg 70%
    19:00 +27°C° 0 mm 1 mps 730 mmHg 77%
    20:00 +25°C° 0 mm 0 mps 731 mmHg 80%
    21:00 +24°C° 0 mm 0 mps 731 mmHg 82%
    22:00 +24°C° 0 mm 0 mps 732 mmHg 85%
    23:00 +23°C° 0.5 mm 0 mps 732 mmHg 87%

    Tomorrow, 21 August, Monday

    Time Temperature Precipitation Wind Pressure Humidity
    00:00 +23°C° 0.5 mm 0 mps 732 mmHg 90%
    01:00 +23°C° 0.5 mm 0 mps 732 mmHg 92%
    02:00 +23°C° 0.3 mm 0 mps 731 mmHg 93%
    03:00 +22°C° 0.3 mm 0 mps 731 mmHg 94%
    04:00 +24°C° 0.3 mm 1 mps 731 mmHg 95%
    05:00 +25°C° 0.1 mm 1 mps 731 mmHg 94%
    06:00 +25°C° 0.1 mm 1 mps 732 mmHg 94%
    07:00 +25°C° 0.1 mm 1 mps 732 mmHg 93%
    08:00 +27°C° 0 mm 1 mps 733 mmHg 84%
    09:00 +29°C° 0 mm 1 mps 733 mmHg 74%
    10:00 +31°C° 0 mm 2 mps 733 mmHg 64%
    11:00 +32°C° 0.1 mm 2 mps 732 mmHg 60%
    12:00 +34°C° 0.1 mm 2 mps 731 mmHg 56%
    13:00 +35°C° 0.1 mm 2 mps 730 mmHg 52%
    14:00 +34°C° 0.5 mm 2 mps 730 mmHg 55%
    15:00 +33°C° 0.5 mm 1 mps 729 mmHg 57%
    16:00 +32°C° 0.5 mm 1 mps 729 mmHg 60%
    17:00 +30°C° 0.3 mm 1 mps 729 mmHg 68%
    18:00 +29°C° 0.3 mm 1 mps 730 mmHg 76%
    19:00 +27°C° 0.3 mm 1 mps 730 mmHg 84%
    20:00 +26°C° 0.4 mm 1 mps 731 mmHg 87%
    21:00 +26°C° 0.4 mm 1 mps 731 mmHg 90%
    22:00 +25°C° 0.4 mm 1 mps 732 mmHg 92%
    23:00 +25°C° 0.3 mm 1 mps 731 mmHg 93%

    Day after tomorrow, 22 August, Tuesday

    Time Temperature Precipitation Wind Pressure Humidity
    00:00 +25°C° 0.3 mm 1 mps 731 mmHg 93%
    01:00 +24°C° 0.3 mm 1 mps 731 mmHg 94%
    02:00 +24°C° 0.1 mm 1 mps 731 mmHg 94%
    03:00 +24°C° 0.1 mm 1 mps 731 mmHg 94%
    04:00 +24°C° 0.1 mm 1 mps 730 mmHg 94%
    05:00 +24°C° 0.4 mm 1 mps 731 mmHg 93%
    06:00 +25°C° 0.4 mm 2 mps 732 mmHg 92%
    07:00 +25°C° 0.4 mm 2 mps 733 mmHg 91%
    08:00 +26°C° 1.8 mm 2 mps 733 mmHg 88%
    09:00 +27°C° 1.8 mm 2 mps 733 mmHg 86%
    10:00 +28°C° 1.8 mm 2 mps 734 mmHg 84%
    11:00 +28°C° 0.8 mm 2 mps 733 mmHg 80%
    12:00 +29°C° 0.8 mm 2 mps 732 mmHg 76%
    13:00 +30°C° 0.8 mm 2 mps 731 mmHg 72%
    14:00 +30°C° 0.1 mm 2 mps 730 mmHg 70%
    15:00 +30°C° 0.1 mm 1 mps 730 mmHg 68%
    16:00 +31°C° 0.1 mm 1 mps 729 mmHg 66%
    17:00 +29°C° 0.2 mm 1 mps 729 mmHg 74%
    18:00 +27°C° 0.2 mm 1 mps 730 mmHg 81%
    19:00 +26°C° 0.2 mm 1 mps 730 mmHg 89%
    20:00 +25°C° 0.1 mm 1 mps 731 mmHg 91%
    21:00 +25°C° 0.1 mm 1 mps 731 mmHg 93%
    22:00 +24°C° 0.1 mm 1 mps 731 mmHg 95%
    23:00 +24°C° 0.5 mm 1 mps 731 mmHg 96%

    23 August, Wednesday

    Time Temperature Precipitation Wind Pressure Humidity
    00:00 +24°C° 0.5 mm 1 mps 731 mmHg 97%
    01:00 +22°C° 0.5 mm 0 mps 731 mmHg 97%
    02:00 +22°C° 0.6 mm 0 mps 731 mmHg 97%
    03:00 +22°C° 0.6 mm 0 mps 730 mmHg 97%
    04:00 +23°C° 0.6 mm 1 mps 730 mmHg 96%
    05:00 +24°C° 0.1 mm 1 mps 731 mmHg 95%
    06:00 +24°C° 0.1 mm 1 mps 732 mmHg 93%
    07:00 +25°C° 0.1 mm 1 mps 732 mmHg 91%
    08:00 +26°C° 0.1 mm 1 mps 732 mmHg 83%
    09:00 +28°C° 0.1 mm 2 mps 732 mmHg 75%
    10:00 +29°C° 0.1 mm 2 mps 733 mmHg 67%
    11:00 +31°C° 0.1 mm 2 mps 732 mmHg 61%
    12:00 +32°C° 0.1 mm 2 mps 731 mmHg 55%
    13:00 +35°C° 0.1 mm 2 mps 730 mmHg 49%
    14:00 +33°C° 0.3 mm 1 mps 729 mmHg 52%
    15:00 +33°C° 0.3 mm 1 mps 729 mmHg 56%
    16:00 +32°C° 0.3 mm 1 mps 729 mmHg 59%
    17:00 +30°C° 0.2 mm 1 mps 729 mmHg 69%
    18:00 +28°C° 0.2 mm 1 mps 729 mmHg 78%
    19:00 +26°C° 0.2 mm 1 mps 730 mmHg 87%
    20:00 +26°C° 0.2 mm 1 mps 730 mmHg 89%
    21:00 +25°C° 0.2 mm 1 mps 731 mmHg 90%
    22:00 +25°C° 0.2 mm 1 mps 731 mmHg 92%
    23:00 +25°C° 0.6 mm 1 mps 731 mmHg 93%

    24 August, Thursday

    Time Temperature Precipitation Wind Pressure Humidity
    00:00 +25°C° 0.6 mm 1 mps 731 mmHg 94%
    01:00 +24°C° 0.6 mm 1 mps 730 mmHg 94%
    02:00 +24°C° 0.3 mm 1 mps 730 mmHg 95%
    03:00 +24°C° 0.3 mm 1 mps 730 mmHg 95%
    04:00 +24°C° 0.3 mm 1 mps 731 mmHg 95%
    05:00 +24°C° 0.1 mm 1 mps 731 mmHg 93%
    06:00 +24°C° 0.1 mm 2 mps 732 mmHg 92%
    07:00 +25°C° 0.1 mm 2 mps 732 mmHg 90%
    08:00 +27°C° 0.3 mm 2 mps 732 mmHg 82%
    09:00 +28°C° 0.3 mm 2 mps 732 mmHg 73%
    10:00 +30°C° 0.3 mm 2 mps 732 mmHg 65%
    11:00 +31°C° 0.7 mm 2 mps 731 mmHg 64%
    12:00 +31°C° 0.7 mm 2 mps 730 mmHg 64%
    13:00 +31°C° 0.7 mm 2 mps 729 mmHg 63%
    14:00 +31°C° 0.3 mm 2 mps 729 mmHg 64%
    15:00 +31°C° 0.3 mm 2 mps 729 mmHg 64%
    16:00 +31°C° 0.3 mm 2 mps 729 mmHg 64%
    17:00 +29°C° 0 mm 1 mps 729 mmHg 70%
    18:00 +28°C° 0 mm 1 mps 730 mmHg 77%
    19:00 +26°C° 0 mm 1 mps 730 mmHg 83%
    20:00 +26°C° 0.7 mm 1 mps 731 mmHg 85%
    21:00 +25°C° 0.7 mm 1 mps 731 mmHg 88%
    22:00 +25°C° 0.7 mm 1 mps 731 mmHg 91%
    23:00 +25°C° 0.2 mm 1 mps 731 mmHg 91%

    25 August, Friday

    Time Temperature Precipitation Wind Pressure Humidity
    00:00 +25°C° 0.2 mm 1 mps 731 mmHg 91%
    01:00 +25°C° 0.2 mm 1 mps 731 mmHg 91%
    02:00 +24°C° 0 mm 1 mps 731 mmHg 92%
    03:00 +24°C° 0 mm 1 mps 731 mmHg 92%
    04:00 +24°C° 0 mm 1 mps 731 mmHg 93%
    05:00 +24°C° 0 mm 1 mps 732 mmHg 92%
    06:00 +25°C° 0 mm 1 mps 732 mmHg 90%
    07:00 +25°C° 0 mm 2 mps 733 mmHg 89%
    08:00 +27°C° 0.1 mm 2 mps 733 mmHg 79%
    09:00 +29°C° 0.1 mm 2 mps 733 mmHg 69%
    10:00 +31°C° 0.1 mm 2 mps 733 mmHg 59%
    11:00 +32°C° 0.3 mm 2 mps 732 mmHg 57%
    12:00 +32°C° 0.3 mm 2 mps 731 mmHg 55%
    13:00 +34°C° 0.3 mm 2 mps 730 mmHg 53%
    14:00 +32°C° 0.6 mm 2 mps 730 mmHg 59%
    15:00 +31°C° 0.6 mm 1 mps 729 mmHg 65%
    16:00 +30°C° 0.6 mm 1 mps 729 mmHg 70%
    17:00 +29°C° 0.1 mm 1 mps 729 mmHg 77%
    18:00 +27°C° 0.1 mm 1 mps 730 mmHg 83%
    19:00 +26°C° 0.1 mm 1 mps 730 mmHg 89%
    20:00 +26°C° 0 mm 1 mps 730 mmHg 90%
    21:00 +25°C° 0 mm 1 mps 731 mmHg 91%
    22:00 +25°C° 0 mm 1 mps 731 mmHg 92%
    23:00 +25°C° 0 mm 1 mps 731 mmHg 91%
    Show more